Location: ????????
(55.5667°N, 37.5833°E)
Time: 15:06:58
(UTC+00:00)

Okean O Rocket - Pass Details

Date: 14 April 2026
Orbit: 613 x 635 km, 98.0° (Epoch: 17 May)

Event Time Altitude Azimuth Distance (km) Brightness Sun altitude
Exits shadow 18:25:07 12° 180° (S) 1,851 3.6 -14.4°
Maximum altitude 18:29:03 58° 258° (WSW) 733 2.1 -14.8°
Drops below altitude 10° 18:33:21 10° 338° (NNW) 2,003 5.2 -15.2°
Sets 18:35:35 0° 343° (NNW) 2,911 6.2 -15.4°
